Location: Berduj
(43.0019°N, 22.3781°E)
Time: 04:33:10
(UTC+00:00)

Cosmos 1271 Rocket - Pass Details

Date: 19 October 2019
Orbit: 499 x 545 km, 81.2° (Epoch: 18 November)

Event Time Altitude Azimuth Distance (km) Brightness Sun altitude
Rises 16:28:51 0° 345° (NNW) 2,701 6.5 -9.3°
Reaches altitude 10° 16:31:03 10° 340° (NNW) 1,810 5.7 -9.7°
Maximum altitude 16:34:55 52° 264° (W) 685 3.8 -10.4°
Drops below altitude 10° 16:38:48 10° 188° (S) 1,807 5.6 -11.1°
Sets 16:40:59 0° 183° (S) 2,696 6.4 -11.5°
